TRITON-1

Last updated on Tue Jul 01 2025 00:03:44 GMT+0000 (Coordinated Universal Time)

1 39427U 13066M 25181.57726575 .00001655 00000+0 21475-3 0 9990 2 39427 97.8358 94.8202 0092968 298.8917 60.2991 14.79173932622069
UTC large
Height (km)
Speed (km/s)
/
Latitude / Longitude
Inclination (degrees)
Orbital Period (minutes)
Azimuth
Elevation
Range (km)
Doppler Factor

Next 0 passes for location: London (51.5072 / 0.1276)

Sorry there are no passes over London.